Bangkok (Don Mueang), Thailand

4:41 PM +07 on March 24, 2017 (GMT +0700)
Bangkok International

Weather History for VTBD - December, 2013

Change the Weather History Date:

Wednesday, December 4, 2013

  Actual Average Record
Temperature  
Mean Temperature 79 °F -  
Max Temperature 90 °F 86 °F 93 °F (1996)
Min Temperature 68 °F 71 °F 33 °F (1997)
Cooling Degree Days 14    
Growing Degree Days 29 (Base 50)    
Moisture  
Dew Point 62 °F    
Average Humidity 56    
Maximum Humidity 73    
Minimum Humidity 27    
Precipitation  
Precipitation 0.00 in 0.02 in - ()
Sea Level Pressure  
Sea Level Pressure 29.89 in    
Wind  
Wind Speed 5 mph ()    
Max Wind Speed 14 mph    
Max Gust Speed -    
Visibility 5.0 miles    
Events      
Averages and records for this station are not official NWS values.
T = Trace of Precipitation, MM = Missing Value Source: Averaged Metar Reports

Daily Weather History Graph

Daily Weather History Graph

Search for Another Location

Airport or City:

Trip Planner

Search our weather history database for the weather conditions in past years. The results will help you decide how hot, cold, wet, or windy it might be!

Date:

Astronomy

Dec. 04, 2013 Rise Set
Actual Time 6:27 AM +07 5:48 PM +07
Civil Twilight 6:04 AM +07 6:11 PM +07
Nautical Twilight 5:37 AM +07 6:37 PM +07
Astronomical Twilight 5:11 AM +07 7:04 PM +07
Moon 7:29 AM +07 (12/4) 7:17 PM +07 (12/4)
Length of Visible Light 12h 07m
Length of Day
11h 21m
New Moon, 2% of the Moon is Illuminated
Dec 4
New Moon
Dec 9
First Quarter
Dec 17
Full
Dec 25
Last Quarter
Jan 1
New

Hourly Weather History & Observations

Time (+07) Temp. Heat Index Dew Point Humidity Pressure Visibility Wind Dir Wind Speed Gust Speed Precip Events Conditions
12:00 AM 73.4 °F - 62.6 °F 69% 29.92 in 4.3 mi NE 3.5 mph - N/A   Unknown
12:30 AM 73.4 °F - 60.8 °F 65% 29.92 in 4.3 mi NNE 4.6 mph - N/A   Unknown
1:00 AM 72 °F - 61 °F 60% 29.93 in 4 mi North 3.5 mph - -   Mist
1:00 AM 71.6 °F - 60.8 °F 69% 29.92 in 4.3 mi North 3.5 mph - N/A   Unknown
2:00 AM 71.6 °F - 60.8 °F 69% 29.92 in 4.3 mi NNE 3.5 mph - N/A   Unknown
2:30 AM 69.8 °F - 60.8 °F 73% 29.92 in 4.3 mi NE 3.5 mph - N/A   Unknown
3:00 AM 69.8 °F - 60.8 °F 73% 29.89 in 4.3 mi East 2.3 mph - N/A   Unknown
3:30 AM 69.8 °F - 60.8 °F 73% 29.89 in 4.3 mi NNW 3.5 mph - N/A   Unknown
4:00 AM 69.8 °F - 60.8 °F 73% 29.89 in 4.3 mi North 3.5 mph - N/A   Unknown
4:30 AM 69.8 °F - 60.8 °F 73% 29.89 in 4.3 mi North 3.5 mph - N/A   Unknown
5:00 AM 69.8 °F - 60.8 °F 73% 29.89 in 4.3 mi North 5.8 mph - N/A   Unknown
5:30 AM 68.0 °F - 59.0 °F 73% 29.89 in 4.3 mi North 5.8 mph - N/A   Unknown
6:00 AM 68.0 °F - 59.0 °F 73% 29.89 in 4.3 mi North 5.8 mph - N/A   Unknown
6:30 AM 69.8 °F - 59.0 °F 68% 29.89 in 4.3 mi North 6.9 mph - N/A   Unknown
7:00 AM 69 °F - 59 °F 62% 29.92 in 4 mi North 6.9 mph - -   Mist
7:00 AM 69.8 °F - 59.0 °F 68% 29.92 in 4.3 mi North 6.9 mph - N/A   Unknown
7:30 AM 69.8 °F - 59.0 °F 68% 29.92 in 4.3 mi North 6.9 mph - N/A   Unknown
8:00 AM 71.6 °F - 60.8 °F 69% 29.92 in 5.0 mi North 6.9 mph - N/A   Unknown
8:30 AM 73.4 °F - 60.8 °F 65% 29.95 in 5.6 mi NNE 13.8 mph - N/A   Unknown
9:00 AM 75.2 °F - 62.6 °F 65% 29.95 in 5.0 mi NNE 11.5 mph - N/A   Unknown
9:30 AM 77.0 °F - 60.8 °F 57% 29.95 in 5.6 mi NNE 10.4 mph - N/A   Unknown
10:00 AM 78 °F - 62 °F 48% 29.96 in 6 mi NE 9.2 mph - -   Haze
10:00 AM 78.8 °F - 62.6 °F 57% 29.95 in 5.6 mi NE 9.2 mph - N/A   Unknown
10:30 AM 80.6 °F 82.7 °F 66.2 °F 61% 29.95 in 5.6 mi NE 9.2 mph - N/A   Unknown
11:30 AM 82.4 °F 83.4 °F 62.6 °F 51% 29.92 in 5.6 mi ENE 8.1 mph - N/A   Unknown
12:00 PM 84.2 °F 84.4 °F 60.8 °F 45% 29.92 in 5.6 mi NE 6.9 mph - N/A   Unknown
12:30 PM 86.0 °F 86.1 °F 60.8 °F 43% 29.89 in 5.6 mi ENE 6.9 mph - N/A   Unknown
1:00 PM 88 °F - 59 °F 27% 29.90 in 6 mi ENE 6.9 mph - -   Haze
1:00 PM 87.8 °F 87.1 °F 59.0 °F 38% 29.89 in 5.6 mi ENE 6.9 mph - N/A   Unknown
1:30 PM 89.6 °F 88.9 °F 59.0 °F 36% 29.86 in - North 6.9 mph - N/A   Clear
2:00 PM 89.6 °F 89.5 °F 60.8 °F 38% 29.83 in - NNE 5.8 mph - N/A   Clear
2:30 PM 89.6 °F 89.5 °F 60.8 °F 38% 29.83 in - ENE 9.2 mph - N/A   Clear
3:00 PM 91.4 °F 91.4 °F 60.8 °F 36% 29.83 in - NE 6.9 mph - N/A   Clear
3:30 PM 91.4 °F 92.1 °F 62.6 °F 38% 29.83 in - NNE 8.1 mph - N/A   Clear
4:00 PM 90 °F - 63 °F 30% 29.83 in 6 mi ENE 8.1 mph - -   Clear
4:00 PM 89.6 °F 90.1 °F 62.6 °F 40% 29.80 in - ENE 8.1 mph - N/A   Clear
4:30 PM 89.6 °F 90.1 °F 62.6 °F 40% 29.83 in - North 6.9 mph - N/A   Clear
5:00 PM 87.8 °F 88.5 °F 62.6 °F 43% 29.83 in - NE 5.8 mph - N/A   Clear
5:30 PM 86.0 °F 86.6 °F 62.6 °F 45% 29.83 in - North 5.8 mph - N/A   Clear
6:00 PM 84.2 °F 85.6 °F 64.4 °F 51% 29.83 in 6.2 mi NE 5.8 mph - N/A   Scattered Clouds
6:30 PM 84.2 °F 85.6 °F 64.4 °F 51% 29.86 in 6.2 mi NE 4.6 mph - N/A   Scattered Clouds
7:00 PM 83 °F - 64 °F 43% 29.89 in 6 mi North 4.6 mph - -   Haze
7:00 PM 84.2 °F 85.6 °F 64.4 °F 51% 29.89 in 5.6 mi North 4.6 mph - N/A   Mostly Cloudy
7:30 PM 84.2 °F 86.6 °F 66.2 °F 55% 29.89 in 5.6 mi North 4.6 mph - N/A   Mostly Cloudy
8:00 PM 82.4 °F 83.9 °F 64.4 °F 54% 29.89 in 5.6 mi North 5.8 mph - N/A   Mostly Cloudy
8:30 PM 82.4 °F 83.4 °F 62.6 °F 51% 29.89 in 5.6 mi NNE 4.6 mph - N/A   Mostly Cloudy
9:00 PM 80.6 °F 81.8 °F 62.6 °F 54% 29.89 in 5.6 mi ENE 5.8 mph - N/A   Mostly Cloudy
9:30 PM 80.6 °F 82.3 °F 64.4 °F 58% 29.92 in 5.0 mi ENE 5.8 mph - N/A   Unknown
10:00 PM 81 °F - 64 °F 48% 29.92 in 5 mi East 3.5 mph - -   Haze
10:00 PM 80.6 °F 82.3 °F 64.4 °F 58% 29.92 in 5.0 mi East 3.5 mph - N/A   Unknown
10:30 PM 80.6 °F 82.3 °F 64.4 °F 58% 29.92 in 5.0 mi NE 3.5 mph - N/A   Unknown
11:00 PM 78.8 °F - 66.2 °F 65% 29.89 in 5.0 mi NNW 4.6 mph - N/A   Unknown
11:30 PM 78.8 °F - 66.2 °F 65% 29.89 in 5.0 mi North 3.5 mph - N/A   Unknown